GFSMW_prec_cthk_162.txt.gz
RH
43 42 43 40 35 28 25 25 28 31 30 29 31 34 34 34 32 33 31 32 29 26 23 20 18 16 18 17 18 19 21 22 28 30 30 31 34 39 39 36 40 46 44
41 42 41 38 34 30 28 29 34 33 32 33 35 36 36 35 35 34 34 33 30 27 23 20 18 17 18 17 18 18 19 22 30 33 35 36 40 47 47 52 53 56 56
38 41 39 37 37 35 32 33 35 34 33 33 36 39 40 39 38 37 37 35 32 27 23 19 16 16 18 16 15 17 18 19 26 38 43 46 49 54 61 58 61 62 63
39 41 39 39 39 38 35 35 36 34 34 35 39 44 45 43 43 41 38 36 32 28 23 18 16 15 15 14 16 16 14 22 31 41 52 56 64 65 61 64 62 69 74
42 37 38 41 42 42 39 37 36 35 36 40 44 50 48 48 47 43 39 36 31 26 21 17 15 14 13 14 14 12 13 25 29 34 49 65 71 72 70 66 66 69 79
46 44 43 43 44 44 42 39 39 38 40 46 51 56 54 52 48 44 42 34 29 25 21 17 15 14 13 14 14 11 14 17 19 31 49 67 74 74 73 70 70 74 83
45 46 47 46 47 48 48 44 43 45 47 53 61 60 57 53 50 47 40 35 29 24 20 17 15 14 14 14 13 12 17 16 17 34 55 73 78 75 73 70 76 75 82
49 47 46 47 49 52 51 50 47 49 57 67 63 60 61 58 52 45 41 35 29 24 20 17 15 15 15 15 13 17 16 15 15 35 56 75 79 75 71 77 80 79 82
51 52 53 54 55 56 55 54 53 64 67 64 65 66 67 59 51 46 40 34 28 23 20 17 16 16 17 17 15 18 14 15 15 23 42 67 80 77 73 80 84 87 87
56 60 62 60 61 62 63 61 64 65 66 68 71 72 63 59 52 45 38 34 26 23 19 17 17 17 19 20 19 18 15 13 16 17 27 57 76 83 79 82 86 91 96
56 59 62 63 66 67 67 64 65 65 69 75 76 69 64 62 52 44 39 32 25 21 20 18 18 18 20 23 21 15 13 15 14 13 16 37 69 81 84 85 87 94 97
61 64 66 68 70 69 70 64 61 67 76 78 73 68 64 61 55 45 37 29 23 21 21 19 19 22 23 24 23 16 13 16 19 11 12 19 45 73 88 90 93 96 98
67 69 69 67 67 67 69 63 65 74 79 74 71 67 65 62 51 41 33 26 24 22 21 22 22 26 27 28 25 17 14 16 22 17 13 12 19 50 78 93 95 96 97
65 67 65 65 65 69 72 65 74 76 73 69 69 69 68 60 45 34 29 25 24 23 23 25 26 31 33 35 28 18 16 20 19 25 17 15 13 16 40 72 96 97 97
64 63 63 66 70 73 75 76 71 70 70 73 74 72 66 51 37 32 29 26 23 23 27 29 31 36 34 33 28 20 19 22 19 24 22 16 15 15 15 26 47 84 94
68 69 70 72 72 70 69 70 72 74 76 76 74 68 59 44 37 33 29 23 23 25 27 31 36 37 38 34 29 24 20 22 28 18 22 25 21 17 17 15 15 21 46
69 71 71 69 71 69 72 73 72 76 76 74 67 62 53 42 36 33 27 24 24 26 28 33 40 37 40 37 32 29 26 26 29 28 21 23 27 24 17 19 17 15 16
70 67 68 73 69 73 72 72 74 76 71 64 62 58 49 40 35 32 26 26 26 29 34 36 40 43 46 39 35 33 31 29 29 29 31 29 28 27 26 19 20 22 20
67 68 68 71 71 71 71 71 74 72 67 66 63 53 43 36 35 30 27 28 29 36 39 43 41 41 43 44 40 38 35 35 34 30 31 31 32 31 29 31 30 27 30
59 65 65 70 69 69 70 70 69 67 65 62 55 46 39 35 32 29 30 33 40 42 47 50 51 47 46 44 40 41 46 43 41 39 33 31 32 35 37 36 32 33 32
60 65 69 70 68 71 67 66 63 57 55 55 47 42 36 33 33 34 39 43 44 47 50 53 47 38 36 34 41 53 59 56 49 47 42 38 36 36 36 37 38 35 34
56 62 66 65 64 65 62 57 52 49 51 48 40 37 37 37 39 43 45 42 46 45 42 39 33 31 33 31 35 35 35 40 48 52 51 48 46 42 42 41 40 38 36
56 57 59 60 60 56 54 48 49 51 47 42 44 43 40 41 43 48 45 47 47 41 33 33 35 33 37 38 33 32 33 32 31 36 43 46 50 50 50 50 49 48 45
58 58 59 58 58 58 56 55 53 47 47 48 46 42 43 46 50 49 47 48 35 32 32 35 36 39 40 43 37 35 36 36 38 42 45 46 48 48 49 47 47 49 48
62 62 65 64 61 61 59 56 51 47 47 49 48 46 48 51 50 46 33 32 29 32 33 36 36 34 40 43 38 38 37 38 41 45 47 47 49 53 56 57 54 53 52
68 68 66 65 60 55 53 51 50 47 48 49 51 51 56 56 53 39 34 32 34 32 33 35 38 37 37 33 38 39 39 40 45 46 48 46 45 47 50 51 54 54 53

GFSMW_prec_cthk_165.txt.gz
RH
43 44 44 46 46 47 44 43 35 25 23 24 26 28 27 30 33 33 33 34 34 33 31 28 26 23 22 20 18 16 18 19 19 20 16 18 23 28 35 35 39 40 41
47 45 42 45 46 45 45 42 33 25 26 29 34 34 34 36 36 36 37 37 38 37 33 29 26 23 22 22 18 18 15 19 22 21 19 18 20 31 38 45 50 50 52
44 42 41 45 46 45 44 39 33 28 30 35 36 35 35 35 35 38 40 41 41 39 34 30 26 22 22 21 19 17 15 18 19 18 21 24 26 29 43 52 57 59 62
38 41 42 45 47 47 44 39 35 34 35 34 36 35 37 38 39 42 43 46 44 39 34 30 25 22 20 18 17 15 15 15 17 17 23 33 41 43 43 61 65 66 63
39 43 43 45 47 48 44 41 38 38 36 35 37 36 38 39 41 44 47 48 45 39 35 29 26 21 20 16 15 13 16 18 15 19 29 36 43 54 62 62 66 69 66
47 52 49 48 48 49 46 43 41 40 38 36 37 40 43 44 48 51 53 53 46 39 35 29 25 22 18 15 15 13 20 19 15 18 29 34 40 54 70 72 71 67 68
52 55 54 54 56 54 50 46 43 42 40 38 40 43 46 50 56 56 58 54 48 44 35 29 25 20 17 14 14 18 19 21 15 19 29 31 37 56 74 76 72 69 73
48 53 56 54 54 54 54 51 49 47 43 43 46 49 55 58 59 61 58 50 46 39 34 30 23 19 15 13 14 21 19 22 25 24 24 27 36 50 73 78 77 75 77
48 55 58 58 58 56 55 52 52 51 47 47 51 58 60 65 66 63 51 48 42 40 33 26 23 19 15 14 14 21 18 20 28 25 20 25 34 44 69 80 81 81 82
50 55 59 60 61 63 64 61 57 54 50 53 60 65 69 71 71 61 55 47 44 36 29 26 21 18 15 15 15 18 20 20 26 23 19 24 30 44 63 79 86 88 89
56 56 60 63 66 66 66 67 63 60 56 61 68 75 76 76 69 60 55 49 40 33 29 24 19 16 16 16 18 20 22 22 21 18 20 25 28 42 58 75 89 93 96
59 60 63 65 67 70 70 69 67 64 61 70 78 79 80 74 66 62 54 46 37 31 25 21 18 17 17 19 21 24 25 24 18 15 20 24 23 33 50 71 86 94 97
64 65 68 69 70 71 71 71 71 68 68 75 79 83 76 73 68 62 52 40 34 26 22 21 18 17 19 22 26 29 31 26 18 17 21 24 21 20 29 52 74 90 96
75 74 76 77 77 81 83 82 78 74 77 71 80 79 76 75 68 60 48 36 28 25 23 19 19 19 21 24 31 30 32 28 21 20 22 20 22 24 20 26 38 59 90
70 70 74 76 77 77 75 77 77 70 67 76 78 79 74 74 70 58 43 32 28 26 25 22 23 25 26 27 32 32 33 29 26 21 25 28 20 22 25 19 24 29 39
72 72 74 72 72 73 72 76 76 70 74 78 79 73 75 75 66 54 40 33 28 26 22 22 23 27 32 31 35 34 36 32 29 24 26 30 29 25 24 24 19 19 22
71 71 74 72 70 72 74 77 77 73 74 76 75 75 75 69 60 51 40 32 28 25 21 23 24 28 34 35 35 36 37 34 33 30 28 28 30 33 30 28 27 24 21
68 67 69 70 74 76 74 71 71 70 70 73 75 72 70 62 58 48 39 31 29 26 24 26 28 34 37 38 39 39 38 38 37 36 33 34 31 32 32 33 33 31 31
72 73 75 76 75 77 77 78 76 74 74 79 80 73 66 64 56 45 34 32 27 27 27 32 35 40 44 42 43 42 41 38 34 35 37 38 37 36 33 31 34 37 36
67 72 74 76 75 77 77 77 75 77 76 76 79 71 68 63 51 38 34 28 29 30 34 37 39 42 44 40 31 28 39 39 44 49 47 41 38 37 36 37 36 36 36
65 65 65 70 77 76 77 79 77 77 79 84 72 67 64 55 42 36 30 30 33 37 39 38 38 41 35 28 24 28 36 42 47 47 40 40 43 45 42 43 42 41 42
58 61 66 71 75 77 82 83 79 85 80 73 65 61 54 44 37 35 37 42 47 48 48 48 42 33 26 23 24 27 26 27 34 35 28 28 31 37 43 48 48 47 46
57 66 68 71 76 80 84 83 79 78 70 62 58 56 49 41 40 40 40 46 50 52 51 47 35 32 34 29 24 27 28 29 34 31 30 29 35 37 38 38 42 46 52
54 62 67 71 73 76 75 74 70 65 63 62 60 52 45 43 41 42 42 52 53 53 46 34 31 32 34 36 30 28 30 31 33 32 33 37 38 39 40 40 42 45 46
63 64 68 69 69 68 67 66 68 67 67 64 56 46 44 45 43 50 54 56 53 44 34 31 32 34 35 35 36 38 39 37 35 35 37 43 49 51 50 47 42 44 48
70 69 66 66 67 70 71 70 70 69 66 62 53 50 49 49 52 57 57 51 45 36 33 34 34 36 38 38 36 32 32 35 36 37 51 54 55 56 54 54 57 53 51

GFSMW_prec_cthk_168.txt.gz
RH
54 55 58 54 52 45 47 52 54 52 46 41 35 25 21 22 22 24 27 30 35 36 35 35 36 33 30 26 22 18 16 17 14 11 10 10 15 17 24 26 27 29 33
51 54 61 53 52 46 46 51 51 50 45 41 35 26 24 24 26 28 33 34 36 35 35 37 38 35 30 26 22 19 17 16 14 12 13 14 14 19 20 28 32 37 40
48 54 52 49 45 44 44 49 50 49 47 43 36 28 27 26 29 32 36 36 35 34 36 40 40 35 30 25 22 19 16 14 14 16 17 20 22 18 17 26 36 43 47
48 53 53 49 44 43 46 54 53 49 49 44 34 28 27 28 34 38 38 36 35 35 41 45 40 35 28 25 22 19 18 16 12 12 16 22 23 24 23 24 38 52 56
47 52 51 52 44 48 50 58 56 53 50 43 34 29 31 34 36 37 36 36 36 41 48 45 39 33 29 25 21 21 19 14 12 10 15 20 23 29 32 27 37 60 61
48 52 52 52 49 49 54 58 58 56 52 45 37 34 35 37 37 36 38 38 41 50 52 44 38 33 28 24 22 20 17 14 13 10 16 20 25 30 35 36 43 60 65
48 54 52 53 56 56 58 58 59 57 56 50 43 39 39 39 40 41 42 45 51 58 47 42 37 31 26 23 19 19 14 16 14 14 14 21 24 34 38 41 47 68 73
51 54 53 55 57 63 66 62 61 62 61 55 50 46 45 44 45 47 49 52 60 54 46 41 35 30 25 19 17 16 13 14 15 16 14 21 27 35 42 42 50 71 78
53 56 57 58 59 61 63 65 64 64 61 59 54 50 50 51 53 54 56 61 64 54 46 41 34 30 22 18 16 14 13 14 16 16 17 19 29 36 46 44 52 74 85
55 59 60 61 61 62 64 64 67 67 63 60 56 56 56 57 61 62 66 71 60 50 45 38 32 25 19 16 14 13 14 14 17 17 19 21 25 34 43 46 52 73 88
56 60 63 63 65 66 65 66 68 71 67 63 58 57 61 66 67 74 78 65 57 50 42 35 27 21 17 15 13 14 15 16 19 22 22 21 21 29 40 44 49 69 87
66 63 65 65 66 67 69 72 70 69 70 69 65 63 69 74 82 83 74 64 56 46 39 29 23 18 17 14 13 16 15 20 24 25 25 21 18 23 31 39 38 50 72
66 63 67 68 69 70 74 77 77 74 73 70 68 72 82 89 89 81 71 64 57 43 33 26 20 18 16 15 16 17 19 23 27 27 26 23 21 23 24 31 35 35 51
69 68 71 74 71 73 76 79 79 80 78 71 71 82 93 93 86 78 74 66 57 41 29 23 20 18 16 18 18 19 26 29 29 29 28 25 22 25 27 25 31 32 35
76 73 73 79 76 81 86 87 88 88 80 77 79 89 92 90 82 80 77 70 56 38 28 23 21 18 18 20 20 27 30 33 31 31 32 28 24 26 30 31 28 29 32
73 75 76 77 77 76 80 82 90 93 89 80 85 89 89 84 84 79 77 69 55 38 30 27 22 19 19 19 26 32 31 32 31 30 33 31 31 29 28 29 34 32 30
75 76 76 74 76 78 78 78 79 87 86 87 90 87 84 84 81 78 75 64 50 35 26 23 20 20 21 26 30 34 37 37 34 33 30 32 34 34 35 33 33 31 32
70 74 73 72 73 75 78 78 80 81 85 83 81 82 82 80 77 76 69 59 44 33 25 23 21 22 28 31 35 36 34 32 28 27 25 28 33 34 38 37 36 32 31
63 67 70 76 74 75 77 79 81 82 78 77 76 77 80 80 77 72 64 55 42 29 26 23 25 29 32 33 36 36 32 27 21 21 28 28 34 37 38 37 37 35 36
53 58 64 71 75 82 79 78 77 78 77 76 76 78 87 85 79 71 61 50 36 29 26 28 31 33 33 36 37 30 28 24 26 28 32 30 30 28 33 36 37 41 43
58 59 62 67 74 80 79 84 83 82 79 80 79 85 88 85 76 65 56 41 31 29 30 34 34 35 35 37 30 24 29 30 36 32 26 24 25 25 25 29 33 36 38
51 59 63 69 73 82 78 84 87 86 86 87 88 89 93 78 70 59 47 36 32 34 36 37 36 38 39 30 23 21 22 26 31 28 27 26 26 26 27 31 32 34 35
47 52 57 65 68 77 82 91 88 92 95 94 96 91 79 73 62 54 43 37 37 41 44 45 45 47 40 24 21 22 22 26 28 28 27 28 29 29 32 32 35 37 39
48 52 56 64 72 78 88 90 94 96 95 91 84 78 70 64 62 51 42 37 45 46 49 53 51 45 35 25 24 23 25 26 28 28 29 29 30 34 36 38 39 40 41
54 58 62 66 72 80 87 91 94 87 84 76 73 71 70 67 57 44 40 44 45 49 52 52 45 37 33 30 29 26 25 27 28 31 31 35 38 42 50 49 47 45 45
65 66 70 74 79 83 83 81 80 75 73 73 74 72 71 66 57 46 45 50 51 53 51 46 39 36 33 34 34 32 28 29 30 30 37 44 47 52 52 54 54 51 51

GFSMW_prec_cthk_174.txt.gz
RH
25 29 35 39 45 50 49 48 51 52 58 60 61 63 63 60 56 51 47 45 39 31 23 20 22 26 30 34 35 34 32 28 27 27 27 24 22 20 18 17 16 16 16
32 32 37 42 44 47 50 51 50 51 55 59 62 64 63 61 57 53 50 47 42 34 27 23 25 29 32 35 38 37 33 29 28 29 26 23 22 20 16 16 17 16 18
35 34 40 44 45 50 53 57 57 55 52 58 61 64 61 59 56 54 52 48 44 38 31 26 28 31 35 40 41 36 33 32 31 27 23 20 16 14 14 16 17 18 19
43 39 40 47 46 51 59 61 63 63 61 60 58 57 58 57 57 55 52 50 45 37 31 29 31 32 36 42 42 37 37 34 29 24 20 17 16 14 12 16 18 18 22
43 44 44 42 44 52 54 61 68 68 69 67 62 59 54 54 56 53 52 52 48 39 35 34 34 36 42 44 44 43 38 33 27 23 19 16 14 15 18 18 18 21 27
48 49 44 46 47 52 55 63 71 73 75 76 73 64 62 56 55 56 56 54 48 41 38 38 39 44 46 48 46 45 38 32 27 22 17 14 13 15 20 20 24 24 28
38 42 43 44 46 50 54 66 71 73 78 77 77 73 67 65 59 61 58 56 52 49 44 41 44 48 53 50 52 45 36 31 25 20 15 11 10 14 17 21 25 28 35
27 34 37 36 41 47 54 66 73 74 79 79 80 76 73 70 69 66 62 55 53 51 48 50 52 55 54 55 51 41 36 28 23 17 11 9 11 14 18 21 25 28 36
28 32 43 42 47 52 62 72 73 76 82 85 83 78 77 76 72 71 63 58 61 56 58 58 58 58 62 59 49 39 32 26 19 14 10 10 12 14 18 22 26 30 36
33 31 41 47 56 63 69 76 79 82 84 88 82 80 84 77 73 72 76 64 61 64 62 63 64 68 62 51 43 36 28 21 17 12 11 11 12 14 18 23 26 32 36
50 50 52 52 55 63 70 81 86 86 91 91 86 82 84 76 74 74 69 70 71 70 70 71 73 65 52 47 38 30 23 18 13 12 11 12 13 15 18 22 25 31 34
62 62 65 69 75 76 75 85 93 89 90 88 84 82 83 77 71 70 70 72 73 74 75 77 71 57 49 40 35 26 20 14 13 12 13 14 14 16 18 21 22 29 33
78 71 76 77 78 79 83 84 91 92 88 85 83 81 82 77 72 74 77 79 81 85 83 78 57 53 45 38 30 23 16 15 13 15 16 16 16 18 18 20 22 28 34
71 71 70 76 74 78 79 83 86 88 83 84 82 81 82 80 73 77 83 84 90 88 82 70 62 55 42 35 24 19 16 16 16 18 18 17 19 19 20 21 21 23 28
64 67 69 71 77 79 77 78 78 76 78 84 83 82 85 79 77 82 91 95 96 84 78 72 64 56 40 28 22 18 17 17 18 19 20 20 21 22 20 20 22 23 23
62 65 61 63 69 74 65 72 81 84 87 87 84 85 88 81 79 90 97 97 94 83 81 77 64 52 34 27 21 18 18 19 21 20 22 24 23 22 19 17 20 22 23
57 59 63 63 62 64 67 71 72 76 79 85 89 92 87 84 86 97 97 98 94 89 90 79 62 47 36 27 21 20 21 21 21 22 23 24 23 20 19 21 23 25 22
64 61 65 67 69 61 63 67 73 79 79 81 84 91 92 85 96 98 97 96 92 92 89 76 60 47 35 27 22 22 23 22 23 24 25 24 19 18 22 24 22 20 21
69 65 63 62 67 62 63 70 75 80 84 84 86 89 91 92 98 95 98 99 97 88 82 76 58 46 36 26 25 24 22 23 27 29 25 19 17 19 22 23 22 22 22
71 68 57 61 57 61 68 73 82 85 82 87 89 94 95 96 98 98 97 99 94 84 82 79 58 44 34 29 26 24 24 27 29 30 25 19 19 20 22 21 23 23 23
77 67 53 48 51 55 64 74 78 80 87 90 94 96 98 98 98 97 98 98 92 83 88 74 53 43 34 31 28 27 28 32 34 31 23 18 19 20 21 23 25 26 28
63 61 53 51 53 60 68 67 72 80 88 88 95 98 98 98 97 98 98 98 91 86 85 66 52 44 40 32 31 30 30 36 36 30 23 21 19 22 22 24 26 27 30
60 55 50 52 52 58 61 60 72 82 91 92 97 98 99 98 98 98 93 96 98 90 76 64 57 50 38 34 35 34 35 38 33 27 25 23 23 23 24 26 28 30 32
62 54 54 54 53 54 56 62 68 78 88 94 98 98 96 98 98 94 93 98 97 82 75 67 57 48 44 40 37 36 39 40 33 28 26 27 26 25 25 27 29 31 35
63 64 59 55 56 54 59 65 70 77 84 89 93 96 98 97 98 92 95 98 95 81 76 65 56 52 46 42 42 42 39 34 30 27 25 26 27 27 27 28 29 31 35
63 60 58 60 61 64 67 71 74 78 84 89 96 97 98 97 96 98 97 97 85 76 72 67 62 56 54 52 51 48 41 33 29 27 26 27 29 32 34 35 34 35 39